Location: Newark
(48.9320°N, 2.2664°E)
Time: 21:20:14
(UTC+00:00)

Vanguard 1 Rocket - Pass Details

Date: 26 February 2020
Orbit: 650 x 4226 km, 34.3° (Epoch: 09 April)

Event Time Altitude Azimuth Distance (km) Brightness Sun altitude
Rises 03:23:48 0° 249° (WSW) 4,553 - -32.3°
Reaches altitude 10° 03:28:16 10° 234° (SW) 3,015 - -31.7°
Maximum altitude 03:32:51 19° 191° (S) 1,946 - -31.0°
Exits shadow 03:36:08 11° 147° (SSE) 2,176 9.4 -30.5°
Drops below altitude 10° 03:36:22 10° 145° (SE) 2,225 9.5 -30.5°
Sets 03:39:02 0° 125° (SE) 3,003 10.5 -30.0°
